Retour au catalogue

COSMOS 397 DEB

ActifLEO
NORAD 5094·DEBRIS·🇷🇺 Russia

Lancé Feb 25, 1971 depuis Baikonur Cosmodrome

Loading…

Prochains Passages (prochaines 24 heures)

TLE

FraisSource: Space-Track

Époque: Sep 14, 2026, 10:37 UTC

1 05094U 71015U   26257.44259705  .00006209  00000-0  87900-3 0  9994
2 05094  65.6845 324.4134 0304241 112.7521 250.6033 14.50768846702061

Suivez COSMOS 397 DEB en temps réel avec AllMySat

Download on the App Store